Theta_e
309 309 311 310 308 303 299 298 297 297 299 296 296 298 303 308 311 313 312 313 313 309 305 306 304 301 301 302 299 297 298 305 309 315 316 316 315 316 319 318 316 313 309 306 305 304 303
307 308 310 309 307 302 298 297 296 296 295 295 296 297 301 307 310 310 311 311 307 304 299 299 297 298 302 302 297 298 299 303 307 315 315 315 314 316 318 317 317 313 309 307 306 305 304
306 307 309 309 306 302 297 296 296 295 295 295 295 296 300 306 307 308 306 302 302 306 299 298 299 299 299 297 297 298 302 303 308 313 312 313 315 315 316 313 311 310 308 306 305 303 301
304 305 306 307 305 302 298 296 296 296 294 295 295 296 298 302 304 302 301 304 304 303 301 299 297 300 298 296 297 298 302 304 304 303 303 303 309 310 312 312 313 314 312 314 302 302 298
304 304 304 304 303 301 297 297 296 295 294 294 295 295 296 300 307 303 306 300 299 297 297 297 300 301 298 296 297 297 298 301 304 303 302 302 304 309 310 312 312 312 314 311 303 298 298
302 302 301 303 301 299 297 296 296 295 294 294 294 295 296 300 307 306 299 298 299 298 298 297 298 301 297 296 296 297 297 298 303 306 307 304 303 307 308 311 310 309 306 302 302 299 297
302 303 301 300 300 297 297 296 295 295 294 293 294 294 296 298 304 302 298 301 304 303 298 297 297 297 296 295 297 297 296 299 303 302 303 300 303 303 300 299 299 300 301 300 298 297 295
303 300 301 300 299 298 297 296 295 295 294 293 294 294 296 296 301 298 301 302 300 300 298 297 296 296 295 295 297 297 297 303 304 302 300 300 300 296 295 296 297 298 299 299 296 295 294
311 303 300 300 300 298 296 296 295 295 293 293 294 294 297 296 298 299 302 301 295 298 301 297 296 297 296 296 296 296 296 298 299 299 300 301 296 293 294 294 295 296 298 296 295 295 295
316 310 302 300 298 299 297 296 295 295 293 293 293 293 297 297 296 299 301 298 296 299 304 299 297 296 296 296 295 294 294 295 297 298 298 297 295 293 293 293 294 296 294 293 293 294 300
317 315 308 301 299 298 297 296 295 294 293 293 293 294 295 294 297 299 300 298 301 304 313 298 296 294 296 297 296 295 293 296 296 295 295 296 294 292 293 293 293 295 293 293 294 295 296
318 317 313 305 300 298 297 296 296 295 293 293 293 294 294 296 300 297 298 301 305 309 320 299 296 296 296 296 295 295 295 294 295 294 295 293 293 293 293 292 292 293 294 294 294 296 298
320 318 316 312 304 299 297 296 296 295 293 293 293 294 295 295 302 298 300 305 306 308 299 299 298 296 296 295 295 295 295 294 296 296 295 293 292 291 292 292 293 293 294 301 299 300 303
321 320 318 316 309 301 299 296 295 294 293 294 293 294 295 298 299 300 303 305 304 304 302 296 296 296 297 295 296 295 295 296 294 295 298 297 296 292 292 293 294 294 295 302 304 302 301
322 321 319 317 314 303 299 297 295 294 293 294 294 294 294 295 300 300 303 302 304 301 299 297 296 297 297 294 294 295 296 296 296 294 298 297 296 291 291 292 293 294 292 293 296 293 293
322 322 320 318 315 308 301 298 295 294 293 295 296 296 294 294 300 300 303 302 299 298 296 297 299 299 299 296 293 295 296 296 294 292 291 295 297 291 290 290 290 292 292 293 294 296 297
320 320 321 319 316 313 303 298 295 295 293 294 295 297 293 296 298 301 302 303 298 296 295 296 298 296 297 297 294 295 297 294 293 290 290 291 293 291 290 290 292 289 291 291 293 294 297
314 318 319 319 318 313 305 298 296 295 294 295 295 299 293 294 298 299 300 299 296 295 294 294 294 295 295 295 295 294 294 294 292 290 290 290 294 294 292 286 286 288 292 292 292 294 291
312 313 316 317 317 313 306 301 297 294 298 296 297 294 292 291 298 299 297 295 295 295 295 295 294 294 292 293 296 294 292 288 290 290 291 290 292 293 291 289 286 287 289 291 287 288 292
310 311 314 315 316 313 306 301 297 297 296 294 297 299 293 293 295 298 300 297 297 295 295 294 293 292 290 290 290 294 292 287 288 289 289 291 292 295 298 292 291 288 288 288 288 291 291
310 311 316 315 314 312 306 301 297 297 297 296 299 303 295 295 296 297 299 299 298 297 294 294 292 292 293 294 289 290 290 287 287 288 288 289 290 289 289 287 286 289 289 288 287 289 291
308 310 314 317 315 309 305 301 299 296 294 297 298 300 293 296 294 296 297 300 297 297 294 293 294 294 293 295 294 293 290 288 289 286 287 283 289 285 286 285 283 284 285 287 287 287 289
305 308 313 314 310 308 305 301 298 297 295 296 293 292 298 299 295 297 299 299 300 298 296 294 294 295 293 292 287 284 286 286 289 287 288 284 286 285 288 280 281 283 282 285 287 286 286
299 305 308 311 311 309 305 302 298 297 297 296 293 294 298 303 297 299 299 299 300 299 299 291 291 293 284 281 282 282 280 279 280 279 283 285 285 286 288 281 286 289 281 283 286 287 287
296 299 305 307 310 310 306 302 299 298 297 296 294 295 297 301 298 298 298 296 293 291 290 289 285 283 282 285 288 287 286 285 281 277 278 279 285 285 287 288 290 288 280 280 283 285 284
295 301 305 305 307 309 309 304 300 298 297 296 294 294 295 299 299 296 297 294 295 294 288 285 282 281 283 287 288 290 291 288 285 281 276 278 279 285 282 284 288 285 279 276 279 284 275
294 295 301 306 305 307 309 305 300 298 298 295 293 293 293 296 291 292 295 293 293 292 290 283 282 282 283 287 289 291 292 287 288 286 280 280 281 282 285 285 288 281 277 274 285 284 272
295 295 297 301 308 306 308 306 301 298 298 295 292 292 294 295 286 283 283 290 288 290 290 283 284 284 284 287 290 290 290 287 287 286 282 284 284 283 283 286 286 276 274 281 274 274 273
295 297 301 303 305 311 306 304 301 298 298 295 290 290 291 288 282 278 277 277 279 279 286 283 287 285 286 288 290 290 288 283 286 288 280 285 287 287 287 286 275 274 273 271 271 271 273
Wind_Speed
2 2 3 3 4 6 7 8 9 11 11 12 12 12 10 10 11 13 13 13 13 13 11 0 3 4 1 7 7 18 13 6 5 3 3 4 5 4 6 8 13 17 14 14 14 16 16
2 2 2 2 4 4 6 7 9 10 12 11 12 10 9 7 8 10 11 10 13 10 6 3 5 3 2 4 11 14 10 7 6 2 4 1 3 4 6 6 2 13 17 14 10 10 9
1 2 2 1 3 4 5 6 8 10 11 10 10 9 7 5 6 8 8 12 7 5 5 5 2 8 18 6 11 12 10 8 7 4 9 5 4 2 9 14 16 17 14 10 6 7 4
1 1 2 2 2 3 4 6 7 9 10 10 9 8 6 4 6 10 10 3 3 2 5 4 4 2 5 3 7 12 8 11 11 10 10 9 10 8 4 12 8 6 8 7 5 4 4
1 1 0 2 1 2 3 5 6 8 10 9 9 7 4 3 5 6 1 1 2 3 7 3 3 3 5 3 5 9 9 6 6 9 10 8 6 5 7 8 6 7 4 6 5 2 3
3 2 1 1 1 1 2 3 5 7 9 9 9 7 2 2 4 5 2 3 3 3 6 2 4 2 4 4 6 6 6 7 4 3 3 4 2 5 4 6 2 4 5 2 2 4 3
4 3 2 2 3 2 0 2 4 6 8 9 8 7 1 1 5 5 4 6 5 3 15 7 5 8 5 3 8 10 7 5 1 4 1 3 5 4 5 4 4 5 2 1 3 3 5
6 4 4 3 3 3 2 1 3 5 7 8 7 7 2 2 5 6 1 2 2 3 5 6 4 6 7 2 2 13 11 1 1 3 3 3 5 5 3 4 4 4 4 1 1 2 4
8 6 5 4 4 4 3 2 2 4 6 7 6 6 4 2 3 3 2 2 6 1 2 3 3 4 3 4 5 8 7 2 5 3 1 2 9 3 2 5 4 2 1 0 2 4 11
11 8 7 6 5 5 5 4 3 3 5 6 5 4 1 0 1 2 2 5 5 2 4 5 2 3 1 1 4 5 5 3 2 7 8 5 5 4 3 3 2 4 4 1 3 4 2
14 13 10 8 7 6 7 5 3 3 4 5 3 4 4 1 2 1 1 7 2 2 5 4 2 2 3 1 3 5 5 1 4 6 3 5 7 6 3 2 1 5 1 5 7 8 8
16 16 14 11 10 8 8 6 4 3 3 3 1 1 2 2 3 2 8 4 2 4 6 4 3 3 3 2 2 2 2 6 4 5 5 7 4 1 2 3 2 3 4 4 4 5 5
22 19 17 14 12 12 10 8 6 3 2 2 2 2 1 1 1 9 9 3 4 5 3 4 3 5 3 4 3 3 6 6 4 6 6 4 7 3 3 4 5 5 4 3 4 5 3
26 24 20 18 16 14 11 10 9 5 2 1 5 3 5 4 7 8 3 3 5 3 2 2 2 5 6 8 3 5 5 8 8 4 6 8 6 12 10 7 3 10 3 4 6 3 2
30 28 25 22 19 17 14 13 11 7 4 4 6 3 2 3 9 6 3 4 4 5 4 7 5 6 6 5 2 7 9 6 6 13 6 6 6 5 2 3 3 6 7 3 4 2 5
31 28 31 26 23 21 17 14 13 9 5 7 3 3 3 2 7 2 4 5 2 3 5 3 5 9 6 8 7 8 9 4 6 7 1 2 3 8 6 2 3 4 3 3 4 4 6
25 30 31 29 28 25 21 17 15 11 8 10 4 2 3 8 6 2 4 5 3 4 4 6 4 3 7 6 10 7 3 4 7 7 5 4 2 7 4 11 10 5 5 5 3 3 4
17 22 34 32 32 28 24 22 19 15 14 11 4 2 2 7 3 2 6 3 2 5 3 4 4 6 7 7 7 8 6 0 9 11 7 5 3 6 6 3 3 5 8 11 5 7 4
14 13 25 35 33 31 29 25 22 21 17 8 3 2 1 1 4 6 3 3 3 6 6 6 4 6 2 6 5 11 2 3 8 8 7 6 6 3 4 2 4 6 10 7 0 2 11
13 17 21 33 34 32 31 28 27 22 21 7 3 2 1 1 2 4 4 5 5 5 4 5 2 5 4 5 4 3 6 3 6 6 3 6 3 7 6 2 4 6 14 18 13 6 10
8 13 15 27 30 36 34 31 26 22 23 10 1 2 2 4 7 12 5 3 6 5 5 8 5 12 7 7 3 6 6 5 6 7 4 4 5 5 8 4 4 7 9 17 21 24 11
6 7 9 27 34 39 32 31 26 25 25 5 4 3 1 2 0 8 10 6 14 9 8 7 9 8 11 6 7 4 9 7 6 10 7 3 2 1 4 4 7 10 12 16 20 21 20
3 4 3 21 33 33 32 29 31 27 25 6 4 3 2 5 3 5 6 8 7 9 8 3 6 5 10 11 4 4 5 4 2 9 11 7 6 4 5 3 5 9 18 23 17 12 18
4 4 4 11 21 31 30 32 33 31 33 7 5 5 2 3 8 8 3 6 10 12 5 2 5 6 6 16 14 10 9 8 6 5 2 6 6 3 2 1 9 2 2 4 14 19 17
5 4 8 12 18 31 34 35 32 31 30 16 10 5 2 2 7 7 10 7 6 5 3 4 3 3 18 4 3 2 3 2 3 3 2 2 4 3 4 9 14 11 4 4 5 3 7
7 3 4 9 16 36 31 37 35 31 30 23 15 11 2 0 6 2 7 11 6 6 4 3 4 12 3 4 3 6 7 4 5 4 2 3 2 2 3 6 8 4 3 1 1 5 11
11 8 9 10 13 14 36 41 37 33 33 25 12 15 4 2 2 1 4 5 5 4 2 4 6 4 2 4 5 5 5 1 7 9 8 5 3 10 10 8 8 4 7 4 4 3 7
15 13 11 11 15 19 42 44 41 34 32 29 11 21 8 2 3 4 3 3 4 4 4 6 5 4 4 5 5 5 4 6 3 4 7 9 10 6 6 6 11 4 5 5 3 2 5
18 18 14 15 19 19 38 45 41 34 33 28 6 18 13 6 3 4 5 3 2 2 4 9 1 4 5 5 6 4 3 2 4 3 3 4 5 4 9 5 4 1 3 2 2 7 8
Wind_Direction
52 78 89 74 61 53 44 38 33 29 25 22 25 29 42 62 65 66 81 88 108 121 131 45 273 325 1 75 21 338 351 24 18 44 138 188 169 168 141 133 97 109 106 85 93 83 83
86 72 91 82 70 61 46 38 33 28 23 20 24 30 41 67 81 93 95 96 107 97 38 56 49 69 226 86 336 346 355 18 24 82 107 187 136 95 114 117 311 107 115 111 94 93 121
117 100 124 82 63 54 46 40 32 28 23 20 21 32 42 71 92 115 112 122 98 45 53 14 347 72 67 70 10 8 30 36 29 28 91 38 65 249 119 110 115 130 118 112 95 101 108
164 149 146 142 92 54 36 33 32 25 22 23 19 25 42 62 104 123 119 119 337 16 345 333 30 73 76 0 29 33 40 60 58 69 81 52 82 80 63 120 150 169 171 186 105 163 131
240 253 194 167 140 76 47 25 22 22 22 20 20 20 35 62 156 172 215 173 96 63 11 33 337 273 88 26 30 16 36 40 57 71 54 53 72 76 146 163 160 199 222 212 143 81 173
226 239 270 215 197 117 49 31 14 13 19 18 18 17 25 84 151 168 137 123 68 325 337 337 61 112 57 27 7 348 16 24 53 105 93 37 93 144 155 216 261 171 197 190 186 125 242
229 238 242 233 215 226 34 16 9 7 12 12 14 10 25 137 169 177 161 302 224 158 48 57 31 79 75 34 51 27 357 338 94 55 96 41 224 113 75 61 68 66 94 149 100 51 307
235 241 249 246 234 231 233 323 358 2 7 7 6 12 122 118 185 184 281 347 20 96 106 52 75 83 54 322 132 22 9 63 319 107 161 176 129 105 89 71 83 87 86 162 124 343 316
232 238 251 244 244 234 239 270 329 350 2 6 7 17 130 92 185 222 247 108 137 13 273 94 60 50 3 4 51 11 358 49 67 71 352 241 114 124 107 99 102 91 211 180 297 325 253
230 229 235 244 240 236 238 257 292 331 359 9 14 17 138 23 113 156 196 193 155 20 262 137 156 66 26 70 67 21 12 359 92 110 91 91 134 141 126 102 310 203 112 179 262 267 283
233 231 225 227 232 233 229 241 264 310 350 11 31 58 44 123 111 296 87 162 145 259 294 79 90 44 49 33 116 52 11 338 135 128 224 93 162 170 193 77 211 60 55 273 271 262 292
235 239 237 226 225 226 225 229 247 279 327 8 60 14 349 25 62 152 144 153 294 241 247 144 127 151 162 71 89 110 79 57 109 93 67 111 38 230 10 135 206 11 237 221 232 246 247
237 236 236 235 232 230 214 217 224 243 306 336 126 92 69 108 102 152 144 195 261 240 93 157 180 182 207 162 137 200 182 168 180 160 182 165 185 130 199 190 193 232 227 228 218 205 275
238 234 232 233 234 231 228 208 212 209 230 265 161 140 66 109 139 150 170 229 240 2 202 71 153 169 202 164 176 178 191 210 221 227 165 193 216 187 176 233 283 203 247 286 277 267 27
245 236 232 229 231 229 223 213 203 204 192 170 160 127 81 121 158 159 218 198 262 22 81 160 155 216 195 202 275 206 219 236 186 197 215 204 163 118 196 169 244 157 212 58 294 219 270
247 241 233 226 225 226 221 214 202 194 181 168 152 144 47 158 157 252 233 240 236 117 125 172 255 200 229 184 200 203 196 171 180 202 277 179 151 194 145 183 209 260 99 175 204 258 254
239 247 242 231 224 223 214 208 202 193 181 174 156 130 358 142 135 235 231 235 198 166 164 197 271 255 245 188 213 198 260 144 157 165 200 169 266 146 150 206 190 173 204 220 295 255 258
246 236 245 236 231 222 212 201 198 186 162 165 163 208 153 152 174 226 245 271 73 160 163 234 284 258 232 201 208 225 240 228 159 156 175 174 231 200 210 62 342 307 227 194 225 190 225
249 262 240 243 233 223 210 201 194 180 176 160 162 95 58 26 210 214 190 253 260 184 191 181 223 218 59 215 231 216 217 14 172 183 164 178 198 207 200 223 203 225 213 228 55 288 226
254 264 244 233 234 226 211 198 193 196 182 188 131 138 81 255 300 289 219 248 228 220 222 195 145 129 150 219 238 223 199 154 193 214 90 167 230 249 266 40 112 204 209 205 206 222 247
295 282 231 225 229 222 206 198 197 185 187 191 109 215 178 190 229 226 217 303 206 221 230 199 205 209 179 196 218 243 177 155 194 203 154 200 239 247 273 228 255 247 218 207 214 229 234
328 314 231 228 222 207 199 193 189 180 180 168 147 172 355 326 90 196 196 224 231 222 182 217 228 201 191 210 209 222 177 187 199 189 173 178 219 64 267 222 240 256 248 244 230 240 254
302 323 300 223 204 202 201 191 190 184 181 188 147 122 153 146 190 162 212 217 218 208 211 324 202 187 215 233 99 69 91 44 134 175 178 167 185 178 255 33 316 267 227 225 220 220 229
341 220 202 222 222 217 206 194 194 192 196 180 157 131 160 206 199 210 217 236 226 214 247 143 182 173 114 114 108 88 74 76 76 44 118 170 178 179 319 22 260 328 111 237 234 241 225
329 309 221 227 228 219 207 202 199 196 197 203 169 147 180 209 205 233 224 204 117 106 119 147 74 39 152 122 128 160 180 199 135 60 89 354 165 193 245 226 291 297 191 178 179 271 296
318 289 276 234 230 216 226 210 199 195 197 201 182 166 148 225 217 30 183 188 201 196 151 120 52 148 128 189 167 216 217 211 188 155 109 101 37 235 153 248 268 59 122 148 188 250 7
312 293 258 232 230 244 218 211 201 196 195 193 179 188 141 217 110 177 185 195 166 157 110 127 141 191 307 182 193 215 233 62 193 189 171 162 187 221 229 255 278 89 126 145 207 328 0
305 298 274 259 228 228 218 216 202 192 189 186 179 184 171 183 87 13 7 171 134 167 166 123 131 205 166 210 212 213 244 203 208 139 180 166 172 195 200 234 263 115 133 217 23 19 21
303 299 282 270 249 246 214 203 198 187 187 186 137 182 161 81 80 73 81 52 43 51 116 177 358 150 175 199 211 240 216 169 245 229 198 207 215 196 205 208 89 23 45 79 332 297 316